Terug naar catalogus

STARLINK-33673

ActiefCommunicatieVLEO
NORAD 63284·PAYLOAD·🇺🇸 United States

Gelanceerd Mar 15, 2025 vanaf Cape Canaveral Space Force Station

Loading…

Volgende Passages (komende 24 uur)

TLE

VersSource: CelesTrak SupGP

Epoch: Sep 15, 2026, 03:27 UTC

1 63284C 25053V   26258.14423611 -.00038566  00000+0 -13971-2 0  2583
2 63284  42.9992 244.0490 0001318 269.0741 244.3605 15.27591904    13

Volg STARLINK-33673 in realtime met AllMySat

Download on the App Store